Current Version              Previous Version:    01  02  03  04  05  06  07  08  09  10  11  12  13  14  15  16  17  18  19  20  21  22  23  24  25  26  27  28  29  30  
   31  32  33  34  35  36  37  38  39  40  41  42  43  44  45  46  47  48  49  50  51  52  53  54  55  56  57  58  59  60  

[Printable]
900
ASUS44 KLUB 301410
RWRTX
WEST TEXAS WEATHER ROUNDUP
NATIONAL WEATHER SERVICE LUBBOCK TX
900 AM CDT WED JUL 30 2014

NOTE: "FAIR" INDICATES FEW OR NO CLOUDS BELOW 12,000 FEET WITH NO
SIGNIFICANT WEATHER AND/OR OBSTRUCTIONS TO VISIBILITY.

TXZ004-006>008-010-012-014-016-OKZ002-301500-
TEXAS PANHANDLE/OKLAHOMA PANHANDLE

CITY           SKY/WX    TMP DP  RH WIND       PRES   REMARKS
AMARILLO       CLOUDY    68  66  93 W3        30.11R
BORGER         CLOUDY    68  64  87 SE8       30.09R
CANADIAN       RAIN      67  66  96 S12       30.05F
DALHART        PTSUNNY   72  62  71 N12       30.13R
DUMAS          PTSUNNY   66  64  94 CALM      30.11R
GUYMON         CLOUDY    68  64  87 W10       30.06R
HEREFORD       CLOUDY    69  67  94 CALM      30.13R
PAMPA          CLOUDY    63  61  92 SE6       30.12R
PERRYTON       CLOUDY    65  64  95 S15       30.05S
$$

TXZ026-029-035-045-048-301500-
SOUTHERN PANHANDLE/SOUTH PLAINS/ROLLING PLAINS

CITY           SKY/WX    TMP DP  RH WIND       PRES   REMARKS
CHILDRESS      PTSUNNY   67  64  90 SE12      30.03F
SEMINOLE       MOSUNNY   76  56  49 S7        30.06S
LUBBOCK        PTSUNNY   73  64  73 S12       30.06F
PLAINVIEW      SUNNY     70  65  84 S6        30.06S
SNYDER         CLOUDY    74  66  76 S8        30.04S
$$

TXZ052-054-060>062-072-078-127-140-154-169-301500-
PERMIAN BASIN/CONCHO VALLEY/BIG COUNTRY/EDWARDS PLATEAU

CITY           SKY/WX    TMP DP  RH WIND       PRES   REMARKS
ABILENE        CLOUDY    77  64  64 S15       30.03F
BIG SPRING     CLOUDY    80  60  50 S16       30.05S
BRADY          SUNNY     79  57  47 S9        30.06S
BROWNWOOD      CLOUDY    77  64  65 S8        30.05S
JUNCTION       MOSUNNY   76  63  64 CALM      30.07
MIDLAND        PTSUNNY   80  58  46 S15       30.04R
ODESSA         MOSUNNY   80  54  40 S14       30.05R
SAN ANGELO     MOSUNNY   78  62  57 S13       30.03S
SONORA         MOSUNNY   79  63  57 S12       30.11S
SWEETWATER     CLOUDY    77  64  63 S10       30.07R
WINK           MOSUNNY   82  52  35 SE13      30.01R
$$

TXZ055-058-074-075-080-082-301500-
FAR WEST/SOUTHWEST MOUNTAINS/TRANS PECOS

CITY           SKY/WX    TMP DP  RH WIND       PRES   REMARKS
ALPINE         SUNNY     80  49  34 S10       30.21S
DRYDEN           N/A     82  62  50 NE6       30.03R
EL PASO        PTSUNNY   75  66  73 SE7       30.10R
FORT STOCKTON  MOSUNNY   79  51  37 SE7       30.05S
GUADALUPE PASS SUNNY     75  50  41 W14       30.21S
MARFA          MOSUNNY   73  50  43 SE5       30.22R
PECOS          MOSUNNY   81  50  33 CALM      30.00S
PRESIDIO       FAIR      85  51  30 NE7       30.06R
$$

TXZ014-016-019-021>030-083-301500
TEXAS TECH WEST TEXAS MESONET/TEXAS PANHANDLE/NORTHERN SOUTH PLAINS

CITY           SKY/WX    TMP DP  RH WIND       PRES   REMARKS
ABERNATHY 5ENE   N/A     73  64  73 SE9       30.08S
AMARILLO 9NNE    N/A     69  65  86 SE3       30.09S
AMARILLO 7SSE    N/A     69  65  89 W3        30.12R
AMHERST 1NE      N/A     72  65  78 SE8       30.08R
BOOTLEG 11WNW    N/A     69  64  84 NW7       30.16S
CANADIAN 6E      N/A     65  65  99 SE10      30.05F
CAPROCK CYN SP   N/A     68  66  96 SE7       30.06R
CHILDRESS 2NNE   N/A     66  64  93 SE10      30.03R
CLARENDON 2WSW   N/A     65  63  91 SE10      30.07R
CLAUDE 12SW      N/A     65  65 100 SE7       30.10R
DIMMITT 2NE      N/A     69  65  88 SE7       30.11R
FLOYDADA 2NNE    N/A     72  64  75 SE9       30.07S
FRIONA 2NE       N/A     67  65  94 SW6       30.12S
GOODLETT 3W      N/A     67  63  89 SE13      30.01F
HART 3N          N/A     70  65  85 SE7       30.09S
HEREFORD 2NW     N/A     67  64  89 W2        30.12R
MCLEAN 1E      LGT RAIN  63  60  91 SE13      30.07R
MEMPHIS 1NE      N/A     66  64  93 E7        30.04R
MULESHOE 2SSW    N/A     69  66  90 S2        30.10R
OLTON 6S         N/A     70  65  82 SE9       30.08R
PALO DURO SP     N/A     67  66  97 N1        30.12R
PAMPA 2E         N/A     63  62  96 SE7       30.11R
PLAINVIEW 1S     N/A     71  66  82 SE7       30.07S
SILVERTON 7ESE   N/A     66  65  96 SE8       30.07R
TULIA 2ENE       N/A     69  67  90 S10       30.08S
TURKEY 2WSW      N/A     69  67  94 SE10      30.04S
UMBARGER 3NNE    N/A     68  65  92 W2        30.13R
$$

TXZ033>036-039>041-045>048-301500
TEXAS TECH WEST TEXAS MESONET/SOUTH PLAINS

CITY           SKY/WX    TMP DP  RH WIND       PRES   REMARKS
AIKEN 3WSW       N/A     72  66  79 S10       30.08S
ANTON 6SSW       N/A     71  65  81 SE10      30.07S
BROWNFIELD 2S    N/A     74  59  60 S10       30.06S
DENVR CTY 7WNW   N/A     69  58  67 S1        30.08R
GAIL 2ESE        N/A     74  64  72 SE5       30.03S
LAMESA 2SE       N/A     76  57  53 S9        30.05S
LEVELLAND 4S     N/A     71  64  78 E3        30.08S
LUBBOCK 3WNW     N/A     75  62  64 SE7       30.07S
MORTON 1ENE      N/A     70  66  86 SE3       30.09S
ODONNELL 1N      N/A     73  58  58 S9        30.05S
PLAINS 3N        N/A     73  61  65 S7        30.08S
RALLS 1SE        N/A     73  65  75 SE9       30.07F
REESE CENTER     N/A     74  62  66 SE8       30.07S
SEAGRAVES 1SW    N/A     73  58  59 S5        30.06S
SEMINOLE 2NNE    N/A     76  55  46 S6        30.05S
SLATON 2NE       N/A     73  64  71 SE10      30.06S
SUNDOWN 8SW      N/A     73  62  70 S5        30.08S
TAHOKA 3NNE      N/A     75  60  59 SE8       30.05F
WOLFFORTH 6SSW   N/A     74  61  63 SE9       30.07S
$$

TXZ031-032-036>038-042>044-301500-
TEXAS TECH WEST TEXAS MESONET/ROLLING PLAINS

CITY           SKY/WX    TMP DP  RH WIND       PRES   REMARKS
ASPERMONT 3NE    N/A     75  69  79 E6        30.03S
FLUVANNA 3WNW    N/A     74  63  68 SE10      30.05S
GRAHAM 5SSW      N/A     72  63  74 SE6       30.05S
GUTHRIE 10WSW    N/A     74  63  68 E12       30.03S
HASKELL 1NW      N/A     78  66  66 SE2       30.03S
JAYTON 1SSE      N/A     74  65  74 E7        30.03F
KNOX CITY 3NW    N/A     74  60  61 NE8       30.04S
LK A HENRY 1NW   N/A     75  66  73 E6        30.03S
NORTHFIELD 1S    N/A     68  67  96 SE10      30.02F
ODELL 4ENE       N/A     68  66  94 SE13      30.04S
PADUCAH 10SW     N/A     69  67  92 SE8       30.02F
POST 1NE         N/A     73  64  73 E3        30.04F
RRING SPRGS 3N   N/A     69  65  89 S5        30.05S
SEYMOUR 3NW      N/A     72  65  77 E7        30.04R
SPUR 1W          N/A     72  63  72 E5        30.03S
WEINERT 2NNE     N/A     72  64  75 E6        30.04S
WHITE RVR 6NE    N/A     74  64  71 E7        30.05S
$$

TXZ052-054-060>062-072-078-127-140-154-169-301500-
TEXAS TECH WEST TEXAS MESONET/PERMIAN BASIN/
CONCHO VALLEY/BIG COUNTRY/EDWARDS PLATEAU

CITY           SKY/WX    TMP DP  RH WIND       PRES   REMARKS
COYANOSA 2N      N/A     84  53  33 SE9       30.01S
JUNCTION 1SSW    N/A     80  64  59 S9        30.07S
MERTZON 3NNE     N/A     78  63  60 S18       30.05S
SAN ANGELO 7NW   N/A     79  60  52 S9        30.05R
STRLNG CT 4WSW   N/A     81  64  56 SE15      30.04S
ST LAWRNCE 5SW   N/A     78  62  57 S13       30.05R
SWEETWATR 11SW   N/A     78  64  61 S18       30.05R
WALL 1E          N/A     80  59  49 S15       30.04S
$$

TXZ055-058-074-075-080-082-301500-
TEXAS TECH WEST TEXAS MESONET/FAR WEST/SOUTHWEST MOUNTAINS/TRANS PECOS

CITY           SKY/WX    TMP DP  RH WIND       PRES   REMARKS
PRSMN GAP BBNP   N/A     82  51  33 S5        30.08R
GUADLPE MTN NP   N/A     78  47  33 NW15      30.20S
$$